Location: Newark
(11.5710°N, 104.9241°E)
Time: 00:17:02
(UTC+00:00)

FALCONSAT 3 - Visible Passes

Search period start: 03 April 2020 00:00
Search period end: 13 April 2020 00:00
Orbit: 451 x 456 km, 35.4° (Epoch: 02 April)

Date Brightness Start Highest point End Pass type
(mag) Time Alt. Az. Time Alt. Az. Time Alt. Az.
10 Apr ? 12:49:10 10° N 12:49:45 12° N 12:49:45 12° N visible
11 Apr ? 12:11:39 10° N 12:13:23 13° NNE 12:14:00 12° NE visible
12 Apr ? 11:34:22 10° N 11:35:25 11° NNE 11:36:28 10° NE visible
12 Apr ? 13:10:48 10° NW 13:11:56 19° NW 13:11:56 19° NW visible
